FW9534 Weather Reports


time (UTC)temp
C
wind
direction
speed
KPH
gust
KPH
rain 1hr
cm
rain 24hr
cm
rain mn
cm
humidity
%
barometer
mb
20260504044537 9 250 8.0 17.7 0.00 0.00 0.00 57 1009.1
20260504043040 9 223 3.2 17.7 0.00 0.00 0.00 58 1009.2
20260504041541 9 207 1.6 16.1 0.00 0.00 0.00 58 1009.2
20260504040041 9 207 3.2 12.9 0.00 0.00 0.00 59 1009.2
20260504034543 10 300 3.2 17.7 0.00 0.00 0.00 57 1009.2
20260504033050 10 243 3.2 16.1 0.00 0.00 0.00 57 1009.2
20260504031538 10 239 0.0 9.7 0.00 0.00 0.00 56 1009.2
20260504030106 10 231 3.2 17.7 0.00 0.00 0.00 55 1009.2
20260504024544 10 226 6.4 19.3 0.00 0.00 0.00 54 1009.2
20260504023038 11 191 3.2 14.5 0.00 0.00 0.00 53 1009.3
20260504021537 11 231 6.4 20.9 0.00 0.00 0.00 53 1009.5
20260504020037 11 194 6.4 20.9 0.00 0.00 0.00 52 1009.7
20260504014539 11 213 8.0 24.1 0.00 0.00 0.00 52 1009.5
20260504013041 11 238 8.0 19.3 0.00 0.00 0.00 52 1009.7
20260504011538 11 239 6.4 20.9 0.00 0.00 0.00 50 1009.7
20260504010040 11 0 4.8 27.4 0.00 0.00 0.00 49 1009.4
20260504004540 11 169 6.4 24.1 0.00 0.00 0.00 50 1009.5
20260504003042 11 215 9.7 40.2 0.00 0.00 0.00 52 1009.9
20260504001537 11 265 8.0 27.4 0.00 0.00 0.00 48 1009.8
20260504000047 11 246 8.0 38.6 0.00 0.00 0.00 47 1009.8
20260503234540 11 217 9.7 22.5 0.00 0.00 0.00 47 1009.6
20260503233040 11 230 11.3 30.6 0.00 0.00 0.00 47 1009.4
20260503231538 11 275 9.7 24.1 0.00 0.00 0.00 47 1009.5
20260503230038 11 316 12.9 43.5 0.00 0.00 0.00 46 1009.8
20260503224537 11 272 8.0 25.7 0.00 0.00 0.00 46 1010.0
20260503223041 11 194 11.3 33.8 0.00 0.00 0.00 47 1009.5
20260503221541 12 252 11.3 32.2 0.00 0.00 0.00 43 1009.4
20260503220038 12 238 11.3 27.4 0.00 0.00 0.00 42 1009.3
20260503214538 12 303 6.4 22.5 0.00 0.00 0.00 42 1009.3
20260503213037 13 306 6.4 30.6 0.00 0.00 0.00 42 1009.2
20260503211537 13 289 9.7 30.6 0.00 0.00 0.00 41 1009.0
20260503210040 13 240 9.7 33.8 0.00 0.00 0.00 42 1008.9
20260503204543 13 207 9.7 29.0 0.00 0.00 0.00 39 1009.0
20260503203043 13 273 6.4 22.5 0.00 0.00 0.00 42 1009.2
20260503201539 13 312 8.0 25.7 0.00 0.00 0.00 39 1009.3
20260503200038 12 260 6.4 20.9 0.00 0.00 0.00 41 1009.4
20260503194538 12 248 12.9 27.4 0.00 0.00 0.00 41 1009.7
20260503193042 12 244 8.0 19.3 0.00 0.00 0.00 42 1009.9
20260503191539 11 272 4.8 17.7 0.00 0.00 0.00 44 1010.0
20260503190038 11 259 6.4 24.1 0.00 0.00 0.00 42 1010.3
20260503184556 11 279 6.4 30.6 0.00 0.00 0.00 45 1010.6
20260503183037 11 258 6.4 24.1 0.00 0.00 0.00 43 1010.8
20260503181537 10 163 4.8 30.6 0.00 0.00 0.00 43 1011.2
20260503180039 10 314 4.8 17.7 0.00 0.00 0.00 47 1011.2
20260503174536 10 264 6.4 22.5 0.00 0.00 0.00 43 1011.6
20260503173038 10 275 6.4 24.1 0.00 0.00 0.00 46 1011.6
20260503171602 9 256 8.0 22.5 0.00 0.00 0.00 43 1011.8
20260503081540 0 231 0.0 4.8 0.00 0.00 0.00 88 1013.0
20260503071553 1 281 0.0 4.8 0.00 0.00 0.00 87 1013.0
20260503070330 1 0 1.6 11.3 0.00 0.00 0.00 86 1013.1
20260503054544 2 0 1.6 9.7 0.00 0.00 0.00 83 1013.4
20260503053041 2 0 1.6 8.0 0.00 0.00 0.00 82 1013.4
20260503051539 2 281 1.6 11.3 0.00 0.00 0.00 82 1013.6
20260503050044 2 292 0.0 12.9 0.00 0.00 0.00 82 1013.7